Espaço - Ciências - Fenômenos Naturais
Meteógrafos Informações Meteorológicas em tempo real

Aeroporto de Salvador

Histórico do Tempo
Temperatura atual: 27 graus 80 F    Umidade relativa: 83 %
Velocidade do vento: 02 nós 3 Km/h    Direção: 020 graus NNE
Ajuste do altímetro ..: 1014 HPA
Visibilidade: Ótima    Tempo presente: Não Disponível

Observação
Poucas nuvens a 2000 Pés.

Data Hora BRTTempo°CUmidadePressãoVentoVisib.
24/05 - 06:56   Não Disponível 27° 83% 1014 Norte-nordeste/3 km/h OK
24/05 - 05:56   Não Disponível 27° 78% 1014 Leste/9 km/h OK
24/05 - 04:56   Não Disponível 27° 78% 1013 Leste/12 km/h OK
24/05 - 03:56   Não Disponível 27° 78% 1013 Leste/9 km/h OK
24/05 - 02:56   Não Disponível 27° 83% 1013 Este-sudeste/10 km/h OK
24/05 - 01:56   Não Disponível 27° 83% 1013 Este-sudeste/14 km/h OK
24/05 - 00:56   Não Disponível 27° 78% 1014 Leste/12 km/h OK
23/05 - 23:56   Poucas nuvens esparsas 28° 79% 1014 Este-sudeste/12 km/h OK
23/05 - 22:56   Poucas nuvens esparsas 28° 79% 1014 Leste/12 km/h OK
23/05 - 21:56   Poucas nuvens esparsas 27° 83% 1014 Leste/10 km/h OK
23/05 - 20:56   Nuvens esparsas 28° 83% 1014 Este-sudeste/9 km/h OK
23/05 - 19:56   Nuvens esparsas 28° 83% 1014 Este-sudeste/9 km/h OK
23/05 - 18:56   Poucas nuvens esparsas 28° 79% 1013 Este-sudeste/10 km/h OK
23/05 - 17:56   Não Disponível 28° 79% 1013 Este-sudeste/9 km/h OK
23/05 - 16:56   Poucas nuvens esparsas 29° 74% 1013 Este-sudeste/10 km/h OK
23/05 - 15:56   Não Disponível 29° 74% 1013 Este-sudeste/7 km/h 9999
23/05 - 14:56   Poucas nuvens esparsas 30° 74% 1013 Sudeste/12 km/h 9999
23/05 - 13:56   Poucas nuvens esparsas 29° 74% 1013 Este-sudeste/10 km/h 9999
23/05 - 12:56   Parcialmente Nublado 29° 79% 1015 Leste/9 km/h 9999
23/05 - 11:56   Parcialmente Nublado 29° 79% 1015 Leste/9 km/h 9999
23/05 - 10:56   Parcialmente Nublado 29° 74% 1016 Leste/9 km/h 9999
23/05 - 09:56   Parcialmente Nublado 30° 74% 1016 Leste/7 km/h 9999
23/05 - 08:56   Parcialmente Nublado 28° 83% 1016 Este-sudeste/5 km/h 9999
23/05 - 07:56   Nuvens esparsas 26° 88% 1015 Oeste/7 km/h 9999


Apolo11.com - Todos os direitos reservados - 2000 - 2019
Política de Privacidade   |     Termo de Uso e Licenciamento   |  -   Entre em Contato

"Política é a guerra sem sangue enquanto a guerra é a política com sangue" - Mao Tsé-Tung